Ketchikan, AK

3:17 AM AKST on January 21, 2019 (GMT -0900)
Ketchikan International

Weather History for PAKT - December, 2018

Change the Weather History Date:

Monday, December 17, 2018

  Actual Average Record
Temperature  
Mean Temperature 44 °F -  
Max Temperature 46 °F 40 °F 51 °F (1969)
Min Temperature 42 °F 30 °F 14 °F (1984)
Degree Days  
Heating Degree Days 21    
Moisture  
Dew Point 40 °F    
Average Humidity 84    
Maximum Humidity 97    
Minimum Humidity 66    
Precipitation  
Precipitation 0.69 in - - ()
Sea Level Pressure  
Sea Level Pressure 29.15 in    
Wind  
Wind Speed 16 mph (SE)    
Max Wind Speed 29 mph    
Max Gust Speed 46 mph    
Visibility 7 miles    
Events Rain    
Averages and records for this station are not official NWS values.
T = Trace of Precipitation, MM = Missing Value Source: NWS Daily Summary

Daily Weather History Graph

Daily Weather History Graph

Search for Another Location

Airport or City:

Astronomy

Dec. 17, 2018 Rise Set
Actual Time 8:09 AM AKST 3:16 PM AKST
Civil Twilight 7:23 AM AKST 4:02 PM AKST
Nautical Twilight 6:35 AM AKST 4:50 PM AKST
Astronomical Twilight 5:50 AM AKST 5:35 PM AKST
Moon 1:11 PM AKST (12/17) 1:26 AM AKST (12/17)
Length of Visible Light 8h 38m
Length of Day
7h 06m
Waxing Gibbous, 73% of the Moon is Illuminated
Dec 17
Waxing Gibbous
Dec 22
Full
Dec 29
Last Quarter
Jan 5
New
Jan 13
First Quarter

Hourly Weather History & Observations

Time (AKST) Temp. Windchill Dew Point Humidity Pressure Visibility Wind Dir Wind Speed Gust Speed Precip Events Conditions
12:53 AM 44.1 °F 37.7 °F 42.1 °F 93% 29.29 in 9.0 mi SE 12.7 mph - 0.06 in Rain Light Rain
1:02 AM 44.1 °F 35.9 °F 41.0 °F 89% 29.28 in 10.0 mi SE 19.6 mph 24.2 mph 0.00 in   Overcast
1:53 AM 43.0 °F 35.7 °F 39.9 °F 89% 29.29 in 8.0 mi SSE 15.0 mph - 0.02 in Rain Light Rain
2:14 AM 43.0 °F 36.0 °F 41.0 °F 93% 29.29 in 2.5 mi SE 13.8 mph 23.0 mph 0.05 in Rain Rain
2:32 AM 43.0 °F 36.8 °F 41.0 °F 93% 29.28 in 2.0 mi SSE 11.5 mph - 0.10 in Rain Rain
2:41 AM 43.0 °F 37.2 °F 39.9 °F 89% 29.27 in 7.0 mi SSE 10.4 mph 19.6 mph 0.11 in Rain Light Rain
2:53 AM 44.1 °F 36.5 °F 39.9 °F 85% 29.27 in 7.0 mi SE 17.3 mph 25.3 mph 0.11 in Rain Light Rain
3:45 AM 45.0 °F 36.9 °F 41.0 °F 86% 29.26 in 5.0 mi SE 20.7 mph 26.5 mph 0.02 in Rain Rain
3:53 AM 45.0 °F 36.9 °F 39.9 °F 82% 29.26 in 4.0 mi SE 20.7 mph - 0.04 in Rain Light Rain
4:53 AM 44.1 °F 37.1 °F 41.0 °F 89% 29.25 in 5.0 mi SE 15.0 mph 32.2 mph 0.08 in Rain Rain
5:53 AM 43.0 °F 34.2 °F 39.9 °F 89% 29.25 in 7.0 mi SE 20.7 mph 31.1 mph 0.08 in Rain Light Rain
6:53 AM 43.0 °F 37.7 °F 42.1 °F 97% 29.28 in 3.0 mi SSE 9.2 mph 17.3 mph 0.15 in Rain Light Rain
7:51 AM 44.6 °F 37.8 °F 42.8 °F 93% 29.29 in 9.0 mi SE 15.0 mph - N/A Rain Light Rain
7:53 AM 44.6 °F 38.1 °F 42.8 °F 93% 29.29 in 9.0 mi SE 13.8 mph - N/A Rain Light Rain
8:53 AM 46.4 °F 39.8 °F 42.8 °F 87% 29.29 in 10.0 mi SE 16.1 mph - N/A   Overcast
9:53 AM 44.6 °F 36.6 °F 42.8 °F 93% 29.28 in 4.0 mi SE 19.6 mph 26.5 mph N/A Rain Light Rain
10:53 AM 44.6 °F 36.9 °F 41.0 °F 87% 29.26 in 9.0 mi SE 18.4 mph 25.3 mph N/A Rain Light Rain
11:53 AM 44.6 °F 35.5 °F 39.2 °F 81% 29.24 in 7.0 mi SE 25.3 mph 34.5 mph N/A Rain Light Rain
12:53 PM 44.6 °F 36.9 °F 39.2 °F 81% 29.20 in 10.0 mi SSE 18.4 mph 24.2 mph N/A Rain Light Rain
1:51 PM 44.6 °F 38.8 °F 39.2 °F 81% 29.15 in 10.0 mi SSE 11.5 mph 19.6 mph N/A Rain Light Rain
1:53 PM 44.6 °F 38.4 °F 39.2 °F 81% 29.16 in 10.0 mi SSE 12.7 mph 19.6 mph N/A Rain Light Rain
2:53 PM 44.6 °F 39.7 °F 37.4 °F 76% 29.10 in 10.0 mi SSE 9.2 mph - N/A Rain Light Rain
3:53 PM 46.0 °F 40.6 °F 36.0 °F 68% 29.02 in 10.0 mi SSE 11.5 mph - 0.00 in   Overcast
4:53 PM 46.4 °F 38.1 °F 35.6 °F 66% 28.96 in 10.0 mi ESE 24.2 mph 34.5 mph N/A Rain Light Rain
5:53 PM 44.6 °F 35.7 °F 37.4 °F 76% 28.96 in 6.0 mi SE 24.2 mph 32.2 mph N/A Rain Light Rain
6:53 PM 42.8 °F 36.2 °F 39.2 °F 87% 28.97 in 10.0 mi SSE 12.7 mph - N/A Rain Light Rain
7:53 PM 46.4 °F 38.5 °F 37.4 °F 71% 28.95 in 10.0 mi ESE 21.9 mph 28.8 mph N/A   Overcast
8:53 PM 44.6 °F 38.8 °F 37.4 °F 76% 28.94 in 10.0 mi SE 11.5 mph 32.2 mph N/A Rain Light Rain
9:53 PM 46.0 °F 36.9 °F 37.0 °F 71% 28.91 in 10.0 mi SE 28.8 mph 40.3 mph 0.01 in   Overcast
10:45 PM 44.1 °F 35.4 °F 39.0 °F 82% 28.92 in 3.0 mi SE 21.9 mph 46.0 mph 0.07 in Rain Rain
10:53 PM 43.0 °F 34.2 °F 39.0 °F 86% 28.92 in 4.0 mi SE 20.7 mph 36.8 mph 0.09 in Rain Light Rain
11:09 PM 43.0 °F 34.8 °F 39.0 °F 86% 28.90 in 7.0 mi SSE 18.4 mph 28.8 mph 0.01 in Rain Light Rain
11:53 PM 44.1 °F 35.9 °F 39.0 °F 82% 28.88 in 6.0 mi SE 19.6 mph 39.1 mph 0.05 in Rain Light Rain